Year,Month,Day,Hour,Minute,Value (Times are PST for windgust in km/hr)
2010,01,18,00,00,9.60
2010,01,18,00,01,19.30
2010,01,18,00,02,11.30
2010,01,18,00,03,11.30
2010,01,18,00,04,11.30
2010,01,18,00,05,9.60
2010,01,18,00,06,16.10
2010,01,18,00,07,8.10
2010,01,18,00,08,11.30
2010,01,18,00,09,19.30
2010,01,18,00,10,14.50
2010,01,18,00,11,8.10
2010,01,18,00,12,16.10
2010,01,18,00,13,14.50
2010,01,18,00,14,19.30
2010,01,18,00,15,19.30
2010,01,18,00,16,12.90
2010,01,18,00,17,9.60
2010,01,18,00,18,16.10
2010,01,18,00,19,20.90
2010,01,18,00,20,16.10
2010,01,18,00,21,20.90
2010,01,18,00,22,19.30
2010,01,18,00,23,11.30
2010,01,18,00,24,6.40
2010,01,18,00,25,14.50
2010,01,18,00,26,17.70
2010,01,18,00,27,24.20
2010,01,18,00,28,19.30
2010,01,18,00,29,25.70
2010,01,18,00,30,16.10
2010,01,18,00,31,19.30
2010,01,18,00,32,20.90
2010,01,18,00,33,16.10
2010,01,18,00,34,17.70
2010,01,18,00,35,11.30
2010,01,18,00,36,17.70
2010,01,18,00,37,14.50
2010,01,18,00,38,14.50
2010,01,18,00,39,14.50
2010,01,18,00,40,8.10
2010,01,18,00,41,9.60
2010,01,18,00,42,9.60
2010,01,18,00,43,9.60
2010,01,18,00,44,11.30
2010,01,18,00,45,9.60
2010,01,18,00,46,17.70
2010,01,18,00,47,16.10
2010,01,18,00,48,17.70
2010,01,18,00,49,17.70
2010,01,18,00,50,19.30
2010,01,18,00,51,17.70
2010,01,18,00,52,19.30
2010,01,18,00,53,12.90
2010,01,18,00,54,11.30
2010,01,18,00,55,24.20
2010,01,18,00,56,11.30
2010,01,18,00,57,16.10
2010,01,18,00,58,16.10
2010,01,18,00,59,11.30
2010,01,18,01,00,11.30
2010,01,18,01,01,11.30
2010,01,18,01,02,6.40
2010,01,18,01,03,8.10
2010,01,18,01,04,17.70
2010,01,18,01,05,17.70
2010,01,18,01,06,16.10
2010,01,18,01,07,14.50
2010,01,18,01,08,11.30
2010,01,18,01,09,14.50
2010,01,18,01,10,17.70
2010,01,18,01,11,16.10
2010,01,18,01,12,16.10
2010,01,18,01,13,11.30
2010,01,18,01,14,9.60
2010,01,18,01,15,16.10
2010,01,18,01,16,25.70
2010,01,18,01,17,24.20
2010,01,18,01,18,20.90
2010,01,18,01,19,24.20
2010,01,18,01,20,24.20
2010,01,18,01,21,17.70
2010,01,18,01,22,19.30
2010,01,18,01,23,14.50
2010,01,18,01,24,22.50
2010,01,18,01,25,14.50
2010,01,18,01,26,17.70
2010,01,18,01,27,24.20
2010,01,18,01,28,24.20
2010,01,18,01,29,22.50
2010,01,18,01,30,19.30
2010,01,18,01,31,17.70
2010,01,18,01,32,24.20
2010,01,18,01,33,20.90
2010,01,18,01,34,16.10
2010,01,18,01,35,17.70
2010,01,18,01,36,24.20
2010,01,18,01,37,17.70
2010,01,18,01,38,20.90
2010,01,18,01,39,17.70
2010,01,18,01,40,11.30
2010,01,18,01,41,16.10
2010,01,18,01,42,9.60
2010,01,18,01,43,12.90
2010,01,18,01,44,20.90
2010,01,18,01,45,17.70
2010,01,18,01,46,19.30
2010,01,18,01,47,14.50
2010,01,18,01,48,22.50
2010,01,18,01,49,19.30
2010,01,18,01,50,16.10
2010,01,18,01,51,19.30
2010,01,18,01,52,17.70
2010,01,18,01,53,16.10
2010,01,18,01,54,17.70
2010,01,18,01,55,19.30
2010,01,18,01,56,19.30
2010,01,18,01,57,19.30
2010,01,18,01,58,19.30
2010,01,18,01,59,17.70
2010,01,18,02,00,16.10
2010,01,18,02,01,17.70
2010,01,18,02,02,17.70
2010,01,18,02,03,17.70
2010,01,18,02,04,12.90
2010,01,18,02,05,11.30
2010,01,18,02,06,9.60
2010,01,18,02,07,11.30
2010,01,18,02,08,11.30
2010,01,18,02,09,16.10
2010,01,18,02,10,16.10
2010,01,18,02,11,14.50
2010,01,18,02,12,14.50
2010,01,18,02,13,16.10
2010,01,18,02,14,11.30
2010,01,18,02,15,12.90
2010,01,18,02,16,22.50
2010,01,18,02,17,11.30
2010,01,18,02,18,24.20
2010,01,18,02,19,17.70
2010,01,18,02,20,16.10
2010,01,18,02,21,17.70
2010,01,18,02,22,17.70
2010,01,18,02,23,24.20
2010,01,18,02,24,17.70
2010,01,18,02,25,24.20
2010,01,18,02,26,17.70
2010,01,18,02,27,17.70
2010,01,18,02,28,19.30
2010,01,18,02,29,17.70
2010,01,18,02,30,19.30
2010,01,18,02,31,19.30
2010,01,18,02,32,19.30
2010,01,18,02,33,25.70
2010,01,18,02,34,27.40
2010,01,18,02,35,20.90
2010,01,18,02,36,22.50
2010,01,18,02,37,17.70
2010,01,18,02,38,37.00
2010,01,18,02,39,22.50
2010,01,18,02,40,14.50
2010,01,18,02,41,17.70
2010,01,18,02,42,24.20
2010,01,18,02,43,22.50
2010,01,18,02,44,17.70
2010,01,18,02,45,19.30
2010,01,18,02,46,20.90
2010,01,18,02,47,24.20
2010,01,18,02,48,27.40
2010,01,18,02,49,16.10
2010,01,18,02,50,25.70
2010,01,18,02,51,19.30
2010,01,18,02,52,16.10
2010,01,18,02,53,22.50
2010,01,18,02,54,30.60
2010,01,18,02,55,29.00
2010,01,18,02,56,32.20
2010,01,18,02,57,29.00
2010,01,18,02,58,53.10
2010,01,18,02,59,40.20
2010,01,18,03,00,51.50
2010,01,18,03,01,38.60
2010,01,18,03,02,32.20
2010,01,18,03,03,45.10
2010,01,18,03,04,40.20
2010,01,18,03,05,30.60
2010,01,18,03,06,27.40
2010,01,18,03,07,38.60
2010,01,18,03,08,30.60
2010,01,18,03,09,45.10
2010,01,18,03,10,40.20
2010,01,18,03,11,45.10
2010,01,18,03,12,62.70
2010,01,18,03,13,59.50
2010,01,18,03,14,64.40
2010,01,18,03,15,41.80
2010,01,18,03,16,43.50
2010,01,18,03,17,51.50
2010,01,18,03,18,32.20
2010,01,18,03,19,37.00
2010,01,18,03,20,49.90
2010,01,18,03,21,53.10
2010,01,18,03,22,33.80
2010,01,18,03,23,53.10
2010,01,18,03,24,45.10
2010,01,18,03,25,41.80
2010,01,18,03,26,27.40
2010,01,18,03,27,45.10
2010,01,18,03,28,43.50
2010,01,18,03,29,61.20
2010,01,18,03,30,59.50
2010,01,18,03,31,49.90
2010,01,18,03,32,43.50
2010,01,18,03,33,61.20
2010,01,18,03,34,51.50
2010,01,18,03,35,49.90
2010,01,18,03,36,53.10
2010,01,18,03,37,59.50
2010,01,18,03,38,43.50
2010,01,18,03,39,49.90
2010,01,18,03,40,41.80
2010,01,18,03,41,49.90
2010,01,18,03,42,45.10
2010,01,18,03,43,37.00
2010,01,18,03,44,45.10
2010,01,18,03,45,33.80
2010,01,18,03,46,43.50
2010,01,18,03,47,40.20
2010,01,18,03,48,48.30
2010,01,18,03,49,35.40
2010,01,18,03,50,43.50
2010,01,18,03,51,48.30
2010,01,18,03,52,46.70
2010,01,18,03,53,51.50
2010,01,18,03,54,40.20
2010,01,18,03,55,40.20
2010,01,18,03,56,54.70
2010,01,18,03,57,38.60
2010,01,18,03,58,40.20
2010,01,18,03,59,33.80
2010,01,18,04,00,48.30
2010,01,18,04,01,46.70
2010,01,18,04,02,43.50
2010,01,18,04,03,43.50
2010,01,18,04,04,46.70
2010,01,18,04,05,29.00
2010,01,18,04,06,37.00
2010,01,18,04,07,37.00
2010,01,18,04,08,32.20
2010,01,18,04,09,41.80
2010,01,18,04,10,45.10
2010,01,18,04,11,41.80
2010,01,18,04,12,57.90
2010,01,18,04,13,43.50
2010,01,18,04,14,46.70
2010,01,18,04,15,41.80
2010,01,18,04,16,37.00
2010,01,18,04,17,40.20
2010,01,18,04,18,53.10
2010,01,18,04,19,45.10
2010,01,18,04,20,45.10
2010,01,18,04,21,54.70
2010,01,18,04,22,32.20
2010,01,18,04,23,33.80
2010,01,18,04,24,48.30
2010,01,18,04,25,37.00
2010,01,18,04,26,38.60
2010,01,18,04,27,29.00
2010,01,18,04,28,33.80
2010,01,18,04,29,33.80
2010,01,18,04,30,48.30
2010,01,18,04,31,37.00
2010,01,18,04,32,38.60
2010,01,18,04,33,46.70
2010,01,18,04,34,33.80
2010,01,18,04,35,45.10
2010,01,18,04,36,43.50
2010,01,18,04,37,45.10
2010,01,18,04,38,35.40
2010,01,18,04,39,30.60
2010,01,18,04,40,35.40
2010,01,18,04,41,33.80
2010,01,18,04,42,37.00
2010,01,18,04,43,46.70
2010,01,18,04,44,54.70
2010,01,18,04,45,57.90
2010,01,18,04,46,45.10
2010,01,18,04,47,38.60
2010,01,18,04,48,46.70
2010,01,18,04,49,43.50
2010,01,18,04,50,48.30
2010,01,18,04,51,38.60
2010,01,18,04,52,41.80
2010,01,18,04,53,46.70
2010,01,18,04,54,38.60
2010,01,18,04,55,35.40
2010,01,18,04,56,35.40
2010,01,18,04,57,48.30
2010,01,18,04,58,46.70
2010,01,18,04,59,49.90
2010,01,18,05,00,56.30
2010,01,18,05,01,48.30
2010,01,18,05,02,29.00
2010,01,18,05,03,35.40
2010,01,18,05,04,43.50
2010,01,18,05,05,53.10
2010,01,18,05,06,41.80
2010,01,18,05,07,37.00
2010,01,18,05,08,46.70
2010,01,18,05,09,33.80
2010,01,18,05,10,32.20
2010,01,18,05,11,41.80
2010,01,18,05,12,41.80
2010,01,18,05,13,45.10
2010,01,18,05,14,53.10
2010,01,18,05,15,46.70
2010,01,18,05,16,46.70
2010,01,18,05,17,38.60
2010,01,18,05,18,38.60
2010,01,18,05,19,41.80
2010,01,18,05,20,46.70
2010,01,18,05,21,38.60
2010,01,18,05,22,46.70
2010,01,18,05,23,54.70
2010,01,18,05,24,51.50
2010,01,18,05,25,45.10
2010,01,18,05,26,33.80
2010,01,18,05,27,46.70
2010,01,18,05,28,38.60
2010,01,18,05,29,35.40
2010,01,18,05,30,32.20
2010,01,18,05,31,41.80
2010,01,18,05,32,46.70
2010,01,18,05,33,37.00
2010,01,18,05,34,48.30
2010,01,18,05,35,54.70
2010,01,18,05,36,40.20
2010,01,18,05,37,56.30
2010,01,18,05,38,41.80
2010,01,18,05,39,38.60
2010,01,18,05,40,32.20
2010,01,18,05,41,53.10
2010,01,18,05,42,38.60
2010,01,18,05,43,53.10
2010,01,18,05,44,43.50
2010,01,18,05,45,48.30
2010,01,18,05,46,48.30
2010,01,18,05,47,38.60
2010,01,18,05,48,33.80
2010,01,18,05,49,33.80
2010,01,18,05,50,48.30
2010,01,18,05,51,45.10
2010,01,18,05,52,51.50
2010,01,18,05,53,53.10
2010,01,18,05,54,35.40
2010,01,18,05,55,33.80
2010,01,18,05,56,32.20
2010,01,18,05,57,35.40
2010,01,18,05,58,46.70
2010,01,18,05,59,43.50
2010,01,18,06,00,38.60
2010,01,18,06,01,30.60
2010,01,18,06,02,32.20
2010,01,18,06,03,41.80
2010,01,18,06,04,38.60
2010,01,18,06,05,35.40
2010,01,18,06,06,48.30
2010,01,18,06,07,40.20
2010,01,18,06,08,33.80
2010,01,18,06,09,27.40
2010,01,18,06,10,37.00
2010,01,18,06,11,37.00
2010,01,18,06,12,38.60
2010,01,18,06,13,37.00
2010,01,18,06,14,27.40
2010,01,18,06,15,45.10
2010,01,18,06,16,33.80
2010,01,18,06,17,37.00
2010,01,18,06,18,30.60
2010,01,18,06,19,35.40
2010,01,18,06,20,25.70
2010,01,18,06,21,33.80
2010,01,18,06,22,30.60
2010,01,18,06,23,27.40
2010,01,18,06,24,22.50
2010,01,18,06,25,25.70
2010,01,18,06,26,19.30
2010,01,18,06,27,33.80
2010,01,18,06,28,24.20
2010,01,18,06,29,24.20
2010,01,18,06,30,30.60
2010,01,18,06,31,29.00
2010,01,18,06,32,22.50
2010,01,18,06,33,25.70
2010,01,18,06,34,19.30
2010,01,18,06,35,37.00
2010,01,18,06,36,29.00
2010,01,18,06,37,33.80
2010,01,18,06,38,27.40
2010,01,18,06,39,29.00
2010,01,18,06,40,27.40
2010,01,18,06,41,29.00
2010,01,18,06,42,32.20
2010,01,18,06,43,29.00
2010,01,18,06,44,24.20
2010,01,18,06,45,25.70
2010,01,18,06,46,37.00
2010,01,18,06,47,33.80
2010,01,18,06,48,20.90
2010,01,18,06,49,30.60
2010,01,18,06,50,22.50
2010,01,18,06,51,29.00
2010,01,18,06,52,30.60
2010,01,18,06,53,33.80
2010,01,18,06,54,29.00
2010,01,18,06,55,30.60
2010,01,18,06,56,27.40
2010,01,18,06,57,16.10
2010,01,18,06,58,25.70
2010,01,18,06,59,29.00
2010,01,18,07,00,32.20
2010,01,18,07,01,24.20
2010,01,18,07,02,30.60
2010,01,18,07,03,32.20
2010,01,18,07,04,16.10
2010,01,18,07,05,33.80
2010,01,18,07,06,37.00
2010,01,18,07,07,33.80
2010,01,18,07,08,30.60
2010,01,18,07,09,17.70
2010,01,18,07,10,14.50
2010,01,18,07,11,29.00
2010,01,18,07,12,25.70
2010,01,18,07,13,20.90
2010,01,18,07,14,9.60
2010,01,18,07,15,25.70
2010,01,18,07,16,24.20
2010,01,18,07,17,17.70
2010,01,18,07,18,19.30
2010,01,18,07,19,19.30
2010,01,18,07,20,25.70
2010,01,18,07,21,20.90
2010,01,18,07,22,33.80
2010,01,18,07,23,22.50
2010,01,18,07,24,22.50
2010,01,18,07,25,24.20
2010,01,18,07,26,22.50
2010,01,18,07,27,17.70
2010,01,18,07,28,6.40
2010,01,18,07,29,22.50
2010,01,18,07,30,19.30
2010,01,18,07,31,20.90
2010,01,18,07,32,14.50
2010,01,18,07,33,25.70
2010,01,18,07,34,22.50
2010,01,18,07,35,33.80
2010,01,18,07,36,22.50
2010,01,18,07,37,16.10
2010,01,18,07,38,20.90
2010,01,18,07,39,14.50
2010,01,18,07,40,17.70
2010,01,18,07,41,24.20
2010,01,18,07,42,17.70
2010,01,18,07,43,19.30
2010,01,18,07,44,33.80
2010,01,18,07,45,25.70
2010,01,18,07,46,24.20
2010,01,18,07,47,19.30
2010,01,18,07,48,22.50
2010,01,18,07,49,11.30
2010,01,18,07,50,20.90
2010,01,18,07,51,22.50
2010,01,18,07,52,22.50
2010,01,18,07,53,14.50
2010,01,18,07,54,16.10
2010,01,18,07,55,25.70
2010,01,18,07,56,14.50
2010,01,18,07,57,19.30
2010,01,18,07,58,29.00
2010,01,18,07,59,22.50
2010,01,18,08,00,24.20
2010,01,18,08,01,30.60
2010,01,18,08,02,27.40
2010,01,18,08,03,25.70
2010,01,18,08,04,20.90
2010,01,18,08,05,20.90
2010,01,18,08,06,32.20
2010,01,18,08,07,24.20
2010,01,18,08,08,19.30
2010,01,18,08,09,22.50
2010,01,18,08,10,24.20
2010,01,18,08,11,19.30
2010,01,18,08,12,20.90
2010,01,18,08,13,19.30
2010,01,18,08,14,17.70
2010,01,18,08,15,19.30
2010,01,18,08,16,19.30
2010,01,18,08,17,19.30
2010,01,18,08,18,16.10
2010,01,18,08,19,19.30
2010,01,18,08,20,19.30
2010,01,18,08,21,19.30
2010,01,18,08,22,9.60
2010,01,18,08,23,11.30
2010,01,18,08,24,20.90
2010,01,18,08,25,11.30
2010,01,18,08,26,16.10
2010,01,18,08,27,14.50
2010,01,18,08,28,14.50
2010,01,18,08,29,11.30
2010,01,18,08,30,9.60
2010,01,18,08,31,8.10
2010,01,18,08,32,8.10
2010,01,18,08,33,17.70
2010,01,18,08,34,16.10
2010,01,18,08,35,19.30
2010,01,18,08,36,9.60
2010,01,18,08,37,16.10
2010,01,18,08,38,14.50
2010,01,18,08,39,11.30
2010,01,18,08,40,14.50
2010,01,18,08,41,14.50
2010,01,18,08,42,17.70
2010,01,18,08,43,8.10
2010,01,18,08,44,9.60
2010,01,18,08,45,6.40
2010,01,18,08,46,6.40
2010,01,18,08,47,11.30
2010,01,18,08,48,8.10
2010,01,18,08,49,4.80
2010,01,18,08,50,6.40
2010,01,18,08,51,3.20
2010,01,18,08,52,11.30
2010,01,18,08,53,9.60
2010,01,18,08,54,6.40
2010,01,18,08,55,4.80
2010,01,18,08,56,16.10
2010,01,18,08,57,25.70
2010,01,18,08,58,17.70
2010,01,18,08,59,6.40
2010,01,18,09,00,11.30
2010,01,18,09,01,9.60
2010,01,18,09,02,11.30
2010,01,18,09,03,19.30
2010,01,18,09,04,11.30
2010,01,18,09,05,22.50
2010,01,18,09,06,16.10
2010,01,18,09,07,8.10
2010,01,18,09,08,9.60
2010,01,18,09,09,9.60
2010,01,18,09,10,24.20
2010,01,18,09,11,24.20
2010,01,18,09,12,9.60
2010,01,18,09,13,14.50
2010,01,18,09,14,11.30
2010,01,18,09,15,19.30
2010,01,18,09,16,9.60
2010,01,18,09,17,9.60
2010,01,18,09,18,14.50
2010,01,18,09,19,14.50
2010,01,18,09,20,11.30
2010,01,18,09,21,9.60
2010,01,18,09,22,11.30
2010,01,18,09,23,9.60
2010,01,18,09,24,6.40
2010,01,18,09,25,8.10
2010,01,18,09,26,6.40
2010,01,18,09,27,6.40
2010,01,18,09,28,9.60
2010,01,18,09,29,9.60
2010,01,18,09,30,16.10
2010,01,18,09,31,16.10
2010,01,18,09,32,9.60
2010,01,18,09,33,4.80
2010,01,18,09,34,9.60
2010,01,18,09,35,9.60
2010,01,18,09,36,9.60
2010,01,18,09,37,8.10
2010,01,18,09,38,8.10
2010,01,18,09,39,12.90
2010,01,18,09,40,9.60
2010,01,18,09,41,14.50
2010,01,18,09,42,14.50
2010,01,18,09,43,8.10
2010,01,18,09,44,14.50
2010,01,18,09,45,9.60
2010,01,18,09,46,16.10
2010,01,18,09,47,16.10
2010,01,18,09,48,12.90
2010,01,18,09,49,9.60
2010,01,18,09,50,17.70
2010,01,18,09,51,14.50
2010,01,18,09,52,16.10
2010,01,18,09,53,22.50
2010,01,18,09,54,24.20
2010,01,18,09,55,20.90
2010,01,18,09,56,19.30
2010,01,18,09,57,19.30
2010,01,18,09,58,14.50
2010,01,18,09,59,12.90
2010,01,18,10,00,17.70
2010,01,18,10,01,17.70
2010,01,18,10,02,9.60
2010,01,18,10,03,14.50
2010,01,18,10,04,14.50
2010,01,18,10,05,17.70
2010,01,18,10,06,11.30
2010,01,18,10,07,12.90
2010,01,18,10,08,19.30
2010,01,18,10,09,20.90
2010,01,18,10,10,16.10
2010,01,18,10,11,16.10
2010,01,18,10,12,16.10
2010,01,18,10,13,16.10
2010,01,18,10,14,19.30
2010,01,18,10,15,14.50
2010,01,18,10,16,11.30
2010,01,18,10,17,16.10
2010,01,18,10,18,14.50
2010,01,18,10,19,11.30
2010,01,18,10,20,6.40
2010,01,18,10,21,9.60
2010,01,18,10,22,9.60
2010,01,18,10,23,11.30
2010,01,18,10,24,11.30
2010,01,18,10,25,16.10
2010,01,18,10,26,8.10
2010,01,18,10,27,6.40
2010,01,18,10,28,6.40
2010,01,18,10,29,17.70
2010,01,18,10,30,8.10
2010,01,18,10,31,8.10
2010,01,18,10,32,8.10
2010,01,18,10,33,8.10
2010,01,18,10,34,11.30
2010,01,18,10,35,9.60
2010,01,18,10,36,8.10
2010,01,18,10,37,4.80
2010,01,18,10,38,9.60
2010,01,18,10,39,9.60
2010,01,18,10,40,4.80
2010,01,18,10,41,4.80
2010,01,18,10,42,3.20
2010,01,18,10,43,6.40
2010,01,18,10,44,8.10
2010,01,18,10,45,8.10
2010,01,18,10,46,8.10
2010,01,18,10,47,9.60
2010,01,18,10,48,4.80
2010,01,18,10,49,9.60
2010,01,18,10,50,4.80
2010,01,18,10,51,9.60
2010,01,18,10,52,9.60
2010,01,18,10,53,14.50
2010,01,18,10,54,12.90
2010,01,18,10,55,6.40
2010,01,18,10,56,11.30
2010,01,18,10,57,9.60
2010,01,18,10,58,11.30
2010,01,18,10,59,9.60
2010,01,18,11,00,8.10
2010,01,18,11,01,11.30
2010,01,18,11,02,11.30
2010,01,18,11,03,19.30
2010,01,18,11,04,11.30
2010,01,18,11,05,17.70
2010,01,18,11,06,8.10
2010,01,18,11,07,12.90
2010,01,18,11,08,17.70
2010,01,18,11,09,11.30
2010,01,18,11,10,9.60
2010,01,18,11,11,11.30
2010,01,18,11,12,9.60
2010,01,18,11,13,9.60
2010,01,18,11,14,16.10
2010,01,18,11,15,11.30
2010,01,18,11,16,16.10
2010,01,18,11,17,11.30
2010,01,18,11,18,14.50
2010,01,18,11,19,17.70
2010,01,18,11,20,9.60
2010,01,18,11,21,9.60
2010,01,18,11,22,9.60
2010,01,18,11,23,9.60
2010,01,18,11,24,14.50
2010,01,18,11,25,12.90
2010,01,18,11,26,16.10
2010,01,18,11,27,17.70
2010,01,18,11,28,9.60
2010,01,18,11,29,11.30
2010,01,18,11,30,14.50
2010,01,18,11,31,11.30
2010,01,18,11,32,16.10
2010,01,18,11,33,8.10
2010,01,18,11,34,14.50
2010,01,18,11,35,11.30
2010,01,18,11,36,14.50
2010,01,18,11,37,19.30
2010,01,18,11,38,16.10
2010,01,18,11,39,17.70
2010,01,18,11,40,16.10
2010,01,18,11,41,14.50
2010,01,18,11,42,17.70
2010,01,18,11,43,14.50
2010,01,18,11,44,17.70
2010,01,18,11,45,14.50
2010,01,18,11,46,17.70
2010,01,18,11,47,19.30
2010,01,18,11,48,24.20
2010,01,18,11,49,14.50
2010,01,18,11,50,14.50
2010,01,18,11,51,16.10
2010,01,18,11,52,17.70
2010,01,18,11,53,24.20
2010,01,18,11,54,17.70
2010,01,18,11,55,22.50
2010,01,18,11,56,17.70
2010,01,18,11,57,17.70
2010,01,18,11,58,19.30
2010,01,18,11,59,20.90
2010,01,18,12,00,17.70
2010,01,18,12,01,14.50
2010,01,18,12,02,14.50
2010,01,18,12,03,24.20
2010,01,18,12,04,17.70
2010,01,18,12,05,16.10
2010,01,18,12,06,17.70
2010,01,18,12,07,19.30
2010,01,18,12,08,14.50
2010,01,18,12,09,22.50
2010,01,18,12,10,16.10
2010,01,18,12,11,14.50
2010,01,18,12,12,16.10
2010,01,18,12,13,22.50
2010,01,18,12,14,25.70
2010,01,18,12,15,17.70
2010,01,18,12,16,19.30
2010,01,18,12,17,25.70
2010,01,18,12,18,20.90
2010,01,18,12,19,19.30
2010,01,18,12,20,19.30
2010,01,18,12,21,14.50
2010,01,18,12,22,17.70
2010,01,18,12,23,17.70
2010,01,18,12,24,24.20
2010,01,18,12,25,14.50
2010,01,18,12,26,17.70
2010,01,18,12,27,17.70
2010,01,18,12,28,17.70
2010,01,18,12,29,19.30
2010,01,18,12,30,19.30
2010,01,18,12,31,16.10
2010,01,18,12,32,14.50
2010,01,18,12,33,17.70
2010,01,18,12,34,19.30
2010,01,18,12,35,11.30
2010,01,18,12,36,20.90
2010,01,18,12,37,22.50
2010,01,18,12,38,22.50
2010,01,18,12,39,24.20
2010,01,18,12,40,12.90
2010,01,18,12,41,17.70
2010,01,18,12,42,11.30
2010,01,18,12,43,20.90
2010,01,18,12,44,25.70
2010,01,18,12,45,19.30
2010,01,18,12,46,17.70
2010,01,18,12,47,12.90
2010,01,18,12,48,16.10
2010,01,18,12,49,9.60
2010,01,18,12,50,14.50
2010,01,18,12,51,16.10
2010,01,18,12,52,19.30
2010,01,18,12,53,19.30
2010,01,18,12,54,20.90
2010,01,18,12,55,14.50
2010,01,18,12,56,14.50
2010,01,18,12,57,14.50
2010,01,18,12,58,16.10
2010,01,18,12,59,20.90
2010,01,18,13,00,19.30
2010,01,18,13,01,22.50
2010,01,18,13,02,14.50
2010,01,18,13,03,12.90
2010,01,18,13,04,16.10
2010,01,18,13,05,20.90
2010,01,18,13,06,20.90
2010,01,18,13,07,14.50
2010,01,18,13,08,17.70
2010,01,18,13,09,14.50
2010,01,18,13,10,16.10
2010,01,18,13,11,14.50
2010,01,18,13,12,19.30
2010,01,18,13,13,12.90
2010,01,18,13,14,11.30
2010,01,18,13,15,16.10
2010,01,18,13,16,20.90
2010,01,18,13,17,17.70
2010,01,18,13,18,14.50
2010,01,18,13,19,16.10
2010,01,18,13,20,11.30
2010,01,18,13,21,11.30
2010,01,18,13,22,11.30
2010,01,18,13,23,11.30
2010,01,18,13,24,9.60
2010,01,18,13,25,11.30
2010,01,18,13,26,19.30
2010,01,18,13,27,14.50
2010,01,18,13,28,9.60
2010,01,18,13,29,3.20
2010,01,18,13,30,11.30
2010,01,18,13,31,9.60
2010,01,18,13,32,14.50
2010,01,18,13,33,12.90
2010,01,18,13,34,14.50
2010,01,18,13,35,11.30
2010,01,18,13,36,11.30
2010,01,18,13,37,11.30
2010,01,18,13,38,11.30
2010,01,18,13,39,11.30
2010,01,18,13,40,11.30
2010,01,18,13,41,8.10
2010,01,18,13,42,8.10
2010,01,18,13,43,16.10
2010,01,18,13,44,16.10
2010,01,18,13,45,17.70
2010,01,18,13,46,9.60
2010,01,18,13,47,9.60
2010,01,18,13,48,14.50
2010,01,18,13,49,20.90
2010,01,18,13,50,12.90
2010,01,18,13,51,9.60
2010,01,18,13,52,16.10
2010,01,18,13,53,11.30
2010,01,18,13,54,17.70
2010,01,18,13,55,9.60
2010,01,18,13,56,17.70
2010,01,18,13,57,16.10
2010,01,18,13,58,16.10
2010,01,18,13,59,9.60
2010,01,18,14,00,11.30
2010,01,18,14,01,9.60
2010,01,18,14,02,11.30
2010,01,18,14,03,9.60
2010,01,18,14,04,9.60
2010,01,18,14,05,14.50
2010,01,18,14,06,14.50
2010,01,18,14,07,11.30
2010,01,18,14,08,19.30
2010,01,18,14,09,9.60
2010,01,18,14,10,14.50
2010,01,18,14,11,16.10
2010,01,18,14,12,9.60
2010,01,18,14,13,9.60
2010,01,18,14,14,11.30
2010,01,18,14,15,14.50
2010,01,18,14,16,16.10
2010,01,18,14,17,14.50
2010,01,18,14,18,11.30
2010,01,18,14,19,4.80
2010,01,18,14,20,6.40
2010,01,18,14,21,8.10
2010,01,18,14,22,11.30
2010,01,18,14,23,9.60
2010,01,18,14,24,6.40
2010,01,18,14,25,8.10
2010,01,18,14,26,8.10
2010,01,18,14,27,17.70
2010,01,18,14,28,11.30
2010,01,18,14,29,8.10
2010,01,18,14,30,8.10
2010,01,18,14,31,14.50
2010,01,18,14,32,16.10
2010,01,18,14,33,8.10
2010,01,18,14,34,6.40
2010,01,18,14,35,6.40
2010,01,18,14,36,8.10
2010,01,18,14,37,11.30
2010,01,18,14,38,9.60
2010,01,18,14,39,9.60
2010,01,18,14,40,6.40
2010,01,18,14,41,4.80
2010,01,18,14,42,11.30
2010,01,18,14,43,12.90
2010,01,18,14,44,11.30
2010,01,18,14,45,9.60
2010,01,18,14,46,12.90
2010,01,18,14,47,11.30
2010,01,18,14,48,12.90
2010,01,18,14,49,11.30
2010,01,18,14,50,8.10
2010,01,18,14,51,16.10
2010,01,18,14,52,16.10
2010,01,18,14,53,16.10
2010,01,18,14,54,4.80
2010,01,18,14,55,6.40
2010,01,18,14,56,8.10
2010,01,18,14,57,4.80
2010,01,18,14,58,9.60
2010,01,18,14,59,6.40
2010,01,18,15,00,6.40
2010,01,18,15,01,6.40
2010,01,18,15,02,14.50
2010,01,18,15,03,8.10
2010,01,18,15,04,4.80
2010,01,18,15,05,4.80
2010,01,18,15,06,1.60
2010,01,18,15,07,4.80
2010,01,18,15,08,11.30
2010,01,18,15,09,8.10
2010,01,18,15,10,8.10
2010,01,18,15,11,6.40
2010,01,18,15,12,6.40
2010,01,18,15,13,4.80
2010,01,18,15,14,1.60
2010,01,18,15,15,6.40
2010,01,18,15,16,4.80
2010,01,18,15,17,9.60
2010,01,18,15,18,8.10
2010,01,18,15,19,6.40
2010,01,18,15,20,9.60
2010,01,18,15,21,6.40
2010,01,18,15,22,6.40
2010,01,18,15,23,8.10
2010,01,18,15,24,8.10
2010,01,18,15,25,6.40
2010,01,18,15,26,6.40
2010,01,18,15,27,3.20
2010,01,18,15,28,6.40
2010,01,18,15,29,4.80
2010,01,18,15,30,4.80
2010,01,18,15,31,1.60
2010,01,18,15,32,8.10
2010,01,18,15,33,6.40
2010,01,18,15,34,3.20
2010,01,18,15,35,9.60
2010,01,18,15,36,4.80
2010,01,18,15,37,4.80
2010,01,18,15,38,6.40
2010,01,18,15,39,8.10
2010,01,18,15,40,9.60
2010,01,18,15,41,6.40
2010,01,18,15,42,8.10
2010,01,18,15,43,6.40
2010,01,18,15,44,4.80
2010,01,18,15,45,6.40
2010,01,18,15,46,11.30
2010,01,18,15,47,4.80
2010,01,18,15,48,3.20
2010,01,18,15,49,3.20
2010,01,18,15,50,4.80
2010,01,18,15,51,8.10
2010,01,18,15,52,6.40
2010,01,18,15,53,9.60
2010,01,18,15,54,9.60
2010,01,18,15,55,9.60
2010,01,18,15,56,8.10
2010,01,18,15,57,8.10
2010,01,18,15,58,9.60
2010,01,18,15,59,9.60
2010,01,18,16,00,11.30
2010,01,18,16,01,11.30
2010,01,18,16,02,9.60
2010,01,18,16,03,12.90
2010,01,18,16,04,14.50
2010,01,18,16,05,11.30
2010,01,18,16,06,8.10
2010,01,18,16,07,11.30
2010,01,18,16,08,11.30
2010,01,18,16,09,9.60
2010,01,18,16,10,9.60
2010,01,18,16,11,9.60
2010,01,18,16,12,8.10
2010,01,18,16,13,8.10
2010,01,18,16,14,9.60
2010,01,18,16,15,8.10
2010,01,18,16,16,9.60
2010,01,18,16,17,11.30
2010,01,18,16,18,8.10
2010,01,18,16,19,9.60
2010,01,18,16,20,6.40
2010,01,18,16,21,4.80
2010,01,18,16,22,6.40
2010,01,18,16,23,6.40
2010,01,18,16,24,8.10
2010,01,18,16,25,9.60
2010,01,18,16,26,3.20
2010,01,18,16,27,3.20
2010,01,18,16,28,4.80
2010,01,18,16,29,4.80
2010,01,18,16,30,6.40
2010,01,18,16,31,6.40
2010,01,18,16,32,6.40
2010,01,18,16,33,6.40
2010,01,18,16,34,4.80
2010,01,18,16,35,4.80
2010,01,18,16,36,4.80
2010,01,18,16,37,3.20
2010,01,18,16,38,1.60
2010,01,18,16,39,1.60
2010,01,18,16,40,4.80
2010,01,18,16,41,1.60
2010,01,18,16,42,3.20
2010,01,18,16,43,0.00
2010,01,18,16,44,1.60
2010,01,18,16,45,0.00
2010,01,18,16,46,0.00
2010,01,18,16,47,0.00
2010,01,18,16,48,0.00
2010,01,18,16,49,0.00
2010,01,18,16,50,3.20
2010,01,18,16,51,0.00
2010,01,18,16,52,0.00
2010,01,18,16,53,0.00
2010,01,18,16,54,3.20
2010,01,18,16,55,4.80
2010,01,18,16,56,3.20
2010,01,18,16,57,3.20
2010,01,18,16,58,3.20
2010,01,18,16,59,1.60
2010,01,18,17,00,0.00
2010,01,18,17,01,0.00
2010,01,18,17,02,0.00
2010,01,18,17,03,0.00
2010,01,18,17,04,1.60
2010,01,18,17,05,3.20
2010,01,18,17,06,6.40
2010,01,18,17,07,6.40
2010,01,18,17,08,4.80
2010,01,18,17,09,3.20
2010,01,18,17,10,1.60
2010,01,18,17,11,1.60
2010,01,18,17,12,3.20
2010,01,18,17,13,0.00
2010,01,18,17,14,0.00
2010,01,18,17,15,0.00
2010,01,18,17,16,1.60
2010,01,18,17,17,1.60
2010,01,18,17,18,1.60
2010,01,18,17,19,0.00
2010,01,18,17,20,0.00
2010,01,18,17,21,1.60
2010,01,18,17,22,3.20
2010,01,18,17,23,3.20
2010,01,18,17,24,0.00
2010,01,18,17,25,0.00
2010,01,18,17,26,1.60
2010,01,18,17,27,1.60
2010,01,18,17,28,1.60
2010,01,18,17,29,4.80
2010,01,18,17,30,1.60
2010,01,18,17,31,1.60